Laughlin AFB, TX

2:50 PM CST on January 18, 2017 (GMT -0600)
Laughlin Air Force Base

Weather History for KDLF - March, 2013

Change the Weather History Date:

Wednesday, March 27, 2013

  Actual Average Record
Temperature  
Mean Temperature 59 °F -  
Max Temperature 72 °F 79 °F 96 °F (2003)
Min Temperature 46 °F 56 °F 41 °F (2015)
Degree Days  
Heating Degree Days 6    
Growing Degree Days 9 (Base 50)    
Moisture  
Dew Point 41 °F    
Average Humidity 47    
Maximum Humidity 62    
Minimum Humidity 37    
Precipitation  
Precipitation 0.00 in - - ()
Sea Level Pressure  
Sea Level Pressure 30.15 in    
Wind  
Wind Speed 12 mph (SSE)    
Max Wind Speed 24 mph    
Max Gust Speed 29 mph    
Visibility 10 miles    
Events Rain    
Averages and records for this station are not official NWS values.
T = Trace of Precipitation, MM = Missing Value Source: NWS Daily Summary

Daily Weather History Graph

Daily Weather History Graph

Search for Another Location

Airport or City:

Trip Planner

Search our weather history database for the weather conditions in past years. The results will help you decide how hot, cold, wet, or windy it might be!

Date:

Astronomy

Mar. 27, 2013 Rise Set
Actual Time 7:38 AM CDT 7:58 PM CDT
Civil Twilight 7:14 AM CDT 8:22 PM CDT
Nautical Twilight 6:46 AM CDT 8:50 PM CDT
Astronomical Twilight 6:18 AM CDT 9:18 PM CDT
Moon 8:37 PM CDT (3/27) 7:34 AM CDT (3/27)
Length of Visible Light 13h 08m
Length of Day
12h 20m
Full, 100% of the Moon is Illuminated
Mar 27
Full
Apr 2
Last Quarter
Apr 10
New
Apr 18
First Quarter
Apr 25
Full

Hourly Weather History & Observations

Time (CDT) Temp. Dew Point Humidity Pressure Visibility Wind Dir Wind Speed Gust Speed Precip Events Conditions
12:58 AM 52.2 °F 26.8 °F 37% 30.22 in 10.0 mi SSE 5.8 mph - N/A   Clear
1:58 AM 49.5 °F 26.4 °F 41% 30.21 in 10.0 mi SE 8.1 mph - N/A   Clear
2:58 AM 50.0 °F 26.1 °F 39% 30.20 in 10.0 mi SE 8.1 mph - N/A   Clear
3:58 AM 50.2 °F 29.8 °F 46% 30.19 in 10.0 mi SE 9.2 mph - N/A   Clear
4:58 AM 48.0 °F 28.6 °F 47% 30.17 in 10.0 mi SE 9.2 mph - N/A   Clear
5:58 AM 46.8 °F 29.8 °F 52% 30.19 in 10.0 mi SE 6.9 mph - N/A   Clear
6:58 AM 46.8 °F 31.1 °F 55% 30.19 in 10.0 mi SE 9.2 mph - N/A   Clear
7:58 AM 47.5 °F 32.5 °F 56% 30.20 in 10.0 mi ESE 11.5 mph - N/A   Clear
8:58 AM 51.4 °F 34.5 °F 52% 30.22 in 10.0 mi SE 12.7 mph - N/A   Clear
9:58 AM 57.2 °F 39.0 °F 51% 30.23 in 10.0 mi SSE 16.1 mph - N/A   Clear
10:58 AM 60.8 °F 42.3 °F 50% 30.23 in 10.0 mi South 16.1 mph 24.2 mph N/A   Clear
11:58 AM 64.4 °F 43.9 °F 47% 30.20 in 10.0 mi South 21.9 mph 27.6 mph N/A   Clear
12:58 PM 66.2 °F 44.6 °F 46% 30.19 in 10.0 mi SSE 20.7 mph 28.8 mph N/A   Mostly Cloudy
1:58 PM 66.7 °F 45.3 °F 46% 30.16 in 10.0 mi South 18.4 mph 26.5 mph N/A   Mostly Cloudy
2:58 PM 68.4 °F 45.7 °F 44% 30.13 in 10.0 mi South 18.4 mph 25.3 mph N/A   Mostly Cloudy
3:58 PM 71.1 °F 46.4 °F 41% 30.09 in 10.0 mi SSE 21.9 mph 25.3 mph N/A   Clear
4:23 PM 71.6 °F 46.4 °F 41% 30.09 in 10.0 mi South 18.4 mph 27.6 mph N/A   Partly Cloudy
4:58 PM 70.5 °F 46.2 °F 42% 30.08 in 10.0 mi SSE 16.1 mph 25.3 mph N/A   Partly Cloudy
5:05 PM 71.6 °F 46.4 °F 41% 30.08 in 10.0 mi SSE 16.1 mph 26.5 mph N/A Rain Light Rain
5:09 PM 71.6 °F 46.4 °F 41% 30.08 in 10.0 mi SE 20.7 mph 28.8 mph N/A   Partly Cloudy
5:10 PM 71.6 °F 46.4 °F 41% 30.08 in 10.0 mi SSE 18.4 mph 28.8 mph N/A Rain Light Rain
5:11 PM 71.6 °F 46.4 °F 41% 30.08 in 10.0 mi SSE 16.1 mph 28.8 mph N/A   Partly Cloudy
5:58 PM 72.0 °F 46.2 °F 40% 30.07 in 10.0 mi South 20.7 mph 24.2 mph 0.00 in   Clear
6:58 PM 69.8 °F 47.8 °F 46% 30.08 in 10.0 mi SSE 24.2 mph - N/A   Clear
7:58 PM 66.6 °F 48.0 °F 51% 30.09 in 10.0 mi SSE 18.4 mph 26.5 mph N/A   Clear
8:58 PM 64.9 °F 48.7 °F 56% 30.10 in 10.0 mi SE 17.3 mph - N/A   Clear
9:58 PM 64.4 °F 48.6 °F 56% 30.12 in 10.0 mi SSE 13.8 mph - N/A   Clear
10:58 PM 62.4 °F 47.8 °F 59% 30.12 in 10.0 mi SE 8.1 mph - N/A   Clear
11:58 PM 61.0 °F 48.0 °F 62% 30.12 in 10.0 mi SE 8.1 mph - N/A   Scattered Clouds